This is the latest recevied weather packets stored in our database for station/object HB9FHL-13. If no packets are shown the sender has not sent any weather packets the latest 10 day(s).
| Time | Temp. | Humidity | Pressure | Rain* | Wind** | Luminosity | Snow |
|---|---|---|---|---|---|---|---|
| 1777736463 | 21.11° C | - | 1013.7 hPa | 0 mm | - | - | - |
| 1777736164 | 21.11° C | - | 1017.9 hPa | 0 mm | - | - | - |
| 1777735858 | 22.22° C | - | 1021 hPa | 0 mm | - | - | - |
| 1777735558 | 21.67° C | - | 1015.9 hPa | 0 mm | - | - | - |
| 1777735258 | 21.11° C | - | 1018.5 hPa | 0 mm | - | - | - |
| 1777734654 | 20.56° C | - | 1014.7 hPa | 0 mm | - | - | - |
| 1777734353 | 21.67° C | - | 1020.2 hPa | 0 mm | - | - | - |
| 1777734053 | 21.67° C | - | 1016.2 hPa | 0 mm | - | - | - |
| 1777733752 | 21.11° C | - | 1021.8 hPa | 0 mm | - | - | - |
| 1777733451 | 21.11° C | - | 1016.7 hPa | 0 mm | - | - | - |
| 1777733147 | 21.67° C | - | 1019.1 hPa | 0 mm | - | - | - |
| 1777732846 | 22.22° C | - | 1018.7 hPa | 0 mm | - | - | - |
| 1777732546 | 21.11° C | - | 1017.9 hPa | 0 mm | - | - | - |
| 1777732245 | 21.67° C | - | 1018.3 hPa | 0 mm | - | - | - |
| 1777731945 | 21.67° C | - | 1019.1 hPa | 0 mm | - | - | - |
| 1777731644 | 21.11° C | - | 1018.8 hPa | 0 mm | - | - | - |
| 1777731043 | 20.56° C | - | 1019.6 hPa | 0 mm | - | - | - |
| 1777730743 | 21.11° C | - | 1021.5 hPa | 0 mm | - | - | - |
| 1777730442 | 20.56° C | - | 1022.4 hPa | 0 mm | - | - | - |
| 1777730142 | 20° C | - | 1018.3 hPa | 0 mm | - | - | - |
| 1777729841 | 21.11° C | - | 1018.5 hPa | 0 mm | - | - | - |
| 1777729541 | 20° C | - | 1017.2 hPa | 0 mm | - | - | - |
| 1777729241 | 21.67° C | - | 1019.2 hPa | 0 mm | - | - | - |
| 1777728940 | 20.56° C | - | 1016.4 hPa | 0 mm | - | - | - |
| 1777728639 | 21.11° C | - | 1014.9 hPa | 0 mm | - | - | - |
* Rain since midnight (hover to see other rain measurements)
** Current wind speed in m/s (hover to see current wind gust speed)